LEMUR-2-RUAIRI-EILIDH (47511 NORAD) Tracking and Keplerian Element Data

This shows tracking and keplerian element data for the satellite.

Feedback or suggestion? Click here.




ElementValue
Catalog47511
NameLEMUR-2-RUAIRI-EILIDH
Epoch Orbit1198
Epoch Day101.90130382
Epoch Year2021
RAAN164.1846
Inclination97.4944
Eccentricity0.0007788
Argument of Perigee348.0389
Mean Anonmoly12.0655
Mean Motion15.1205087
Decay Rate1.14E-05
L11 47511U 21006DC 21101.90130382 .00001140 00000-0 70033-4 0 9991
L22 47511 97.4944 164.1846 0007788 348.0389 12.0655 15.12050870 11989

Live tracking and technical data element details for LEMUR-2-RUAIRI-EILIDH (NORAD 47511). LEMUR-2-RUAIRI-EILIDH can be tracked NOW for your location showing map with azimuth and elevation plus other details from your city location.

Track the satellite on the map from your city or location and see movement details for azimuth, elevation, latitude, longitude, range, height, and movement on the map or in text.







IsCatalogInMostPopularTable: catalog: 47511, numindb: 13
Update: records affected: 1



GetName: 47511 LEMUR-2-RUAIRI-EILIDH

Hit Count: updated at: Tue, 13 Apr 2021 04:29:07 GMT